Location: Sevilla
(37.3933°N, 5.9839°W)
Time: 03:25:49
(UTC+02:00)

Tiros 1 - Visible Passes

Search period start: 13 June 2024 00:00
Search period end: 23 June 2024 00:00
Orbit: 624 x 657 km, 48.4° (Epoch: 12 June)

Date Brightness Start Highest point End Pass type
(mag) Time Alt. Az. Time Alt. Az. Time Alt. Az.
13 Jun 9.3 03:58:26 14° ESE 03:58:26 14° ESE 03:59:59 10° E visible
13 Jun 7.1 05:35:57 23° SW 05:38:47 89° NW 05:43:28 10° NE visible
14 Jun 8.0 04:21:07 35° SE 04:21:07 35° SE 04:25:05 10° ENE visible
14 Jun 7.8 05:58:37 11° W 06:02:48 47° NNW 06:07:19 10° NE visible
15 Jun 7.0 04:43:44 57° SW 04:44:36 80° SE 04:49:16 10° ENE visible
15 Jun 8.7 06:22:57 10° W 06:27:02 29° NNW 06:31:08 10° NE visible
16 Jun 9.0 03:28:47 21° E 03:28:47 21° E 03:30:45 10° ENE visible
16 Jun 7.6 05:06:17 27° W 05:08:35 52° NNW 05:13:09 10° NE visible
17 Jun 7.5 03:51:17 54° E 03:51:17 54° E 03:55:03 10° ENE visible
17 Jun 8.6 05:28:47 11° W 05:32:45 32° NNW 05:36:57 10° NE visible
18 Jun 9.7 02:36:14 11° E 02:36:14 11° E 02:36:23 10° ENE visible
18 Jun 7.4 04:13:44 53° WNW 04:14:21 59° NNW 04:18:57 10° NE visible
18 Jun 9.1 05:53:22 10° WNW 05:57:06 23° N 06:00:52 10° NE visible
19 Jun 8.8 02:58:38 26° ENE 02:58:38 26° ENE 03:00:48 10° ENE visible
19 Jun 8.5 04:36:08 21° WNW 04:38:29 34° NNW 04:42:45 10° NE visible
19 Jun 9.4 06:18:03 10° NW 06:21:32 21° N 06:25:05 10° NE visible
20 Jun 7.7 03:20:58 54° NNE 03:20:58 54° NNE 03:24:45 10° NE visible
20 Jun 9.1 04:59:00 10° WNW 05:02:48 24° NNW 05:06:37 10° NE visible
21 Jun 9.5 02:05:44 15° ENE 02:05:44 15° ENE 02:06:31 10° ENE visible
21 Jun 8.3 03:43:13 33° NW 03:44:13 37° NNW 03:48:32 10° NE visible
21 Jun 9.5 05:23:43 10° NW 05:27:13 21° N 05:30:45 10° NE visible
22 Jun 8.5 02:27:54 33° NE 02:27:54 33° NE 02:30:31 10° NE visible
22 Jun 9.1 04:05:22 13° WNW 04:08:29 26° NNW 04:12:22 10° NE visible
22 Jun 9.5 05:48:07 10° NW 05:51:41 21° N 05:55:16 10° ENE visible
